User: anonymous   Login
Location: Caltech
(34.1382°N, 118.1253°W)
Time: 22:37:47
(UTC-07:00)
Language:

Oscar 16 - Orbit

View from above orbital plane
View from above orbital plane
View from above satellite
View from above satellite

Ground track
Ground track

The orbit data is extracted from the following two-line orbital elements,

1 20439U 90005D   15145.38040133  .00000076  00000-0  44225-4 0  9994
2 20439 098.5395 081.9115 0009910 223.8777 249.9756 14.32542027323470
Epoch (UTC): 25 May 2015 09:07:46
Eccentricity: 0.0009910
inclination: 98.5395°
perigee height: 776 km
apogee height: 790 km
right ascension of ascending node: 81.9115°
argument of perigee: 223.8777°
revolutions per day: 14.32542027
mean anomaly at epoch: 249.9756°
orbit number at epoch: 32347

The dashed part of the orbit path shows where the satellite is in the earth's shadow,  

DLR